TimeCST,TemperatureF,Dew PointF,Humidity,Sea Level PressureIn,VisibilityMPH,Wind Direction,Wind SpeedMPH,Gust SpeedMPH,PrecipitationIn,Events,Conditions,WindDirDegrees,DateUTC
12:52 AM,28.9,25.0,85,30.27,10.0,West,6.9,-,N/A,,Clear,280,2013-11-07 06:52:00
1:52 AM,28.0,25.0,88,30.27,10.0,West,4.6,-,N/A,,Clear,260,2013-11-07 07:52:00
2:52 AM,27.0,24.1,89,30.27,10.0,WSW,3.5,-,N/A,,Clear,240,2013-11-07 08:52:00
3:52 AM,28.0,24.1,85,30.27,10.0,WSW,3.5,-,N/A,,Clear,240,2013-11-07 09:52:00
4:52 AM,27.0,24.1,89,30.27,10.0,SW,3.5,-,N/A,,Clear,220,2013-11-07 10:52:00
5:52 AM,28.0,24.1,85,30.27,10.0,SW,4.6,-,N/A,,Clear,230,2013-11-07 11:52:00
6:52 AM,28.0,24.1,85,30.27,8.0,SW,4.6,-,N/A,,Clear,220,2013-11-07 12:52:00
7:52 AM,30.9,27.0,85,30.28,8.0,SW,6.9,-,N/A,,Partly Cloudy,220,2013-11-07 13:52:00
8:52 AM,34.0,30.0,85,30.28,8.0,SW,10.4,-,N/A,,Overcast,230,2013-11-07 14:52:00
9:50 AM,35.6,30.2,81,30.26,8.0,West,17.3,-,N/A,,Overcast,270,2013-11-07 15:50:00
9:52 AM,35.1,30.0,82,30.29,8.0,West,16.1,-,N/A,,Overcast,270,2013-11-07 15:52:00
10:52 AM,34.0,28.9,82,30.30,7.0,WNW,18.4,-,N/A,,Overcast,300,2013-11-07 16:52:00
10:59 AM,33.8,28.4,81,30.28,7.0,WNW,18.4,-,N/A,,Overcast,290,2013-11-07 16:59:00
11:26 AM,35.6,28.4,75,30.27,9.0,WNW,19.6,23.0,N/A,,Overcast,290,2013-11-07 17:26:00
11:52 AM,36.0,30.0,79,30.29,10.0,WNW,18.4,-,N/A,,Overcast,290,2013-11-07 17:52:00
12:52 PM,37.0,30.0,76,30.29,10.0,NW,18.4,25.3,N/A,,Overcast,320,2013-11-07 18:52:00
1:40 PM,39.2,32.0,75,30.25,10.0,NW,16.1,-,N/A,,Scattered Clouds,320,2013-11-07 19:40:00
1:52 PM,41.0,32.0,70,30.27,10.0,NW,13.8,-,N/A,,Partly Cloudy,310,2013-11-07 19:52:00
2:52 PM,43.0,32.0,65,30.27,10.0,WNW,15.0,-,N/A,,Clear,290,2013-11-07 20:52:00
3:52 PM,43.0,32.0,65,30.28,10.0,WNW,10.4,-,N/A,,Clear,290,2013-11-07 21:52:00
4:52 PM,39.0,30.9,73,30.28,10.0,West,6.9,-,N/A,,Clear,270,2013-11-07 22:52:00
5:52 PM,36.0,28.9,76,30.29,10.0,WSW,5.8,-,N/A,,Clear,240,2013-11-07 23:52:00
6:52 PM,36.0,28.9,76,30.29,10.0,West,10.4,-,N/A,,Clear,260,2013-11-08 00:52:00
7:52 PM,33.1,28.0,82,30.30,10.0,West,8.1,-,N/A,,Clear,280,2013-11-08 01:52:00
8:52 PM,32.0,27.0,82,30.30,10.0,West,8.1,-,N/A,,Clear,280,2013-11-08 02:52:00
9:52 PM,32.0,27.0,82,30.30,10.0,West,8.1,-,N/A,,Clear,260,2013-11-08 03:52:00
10:52 PM,30.9,27.0,85,30.30,10.0,West,9.2,-,N/A,,Clear,270,2013-11-08 04:52:00
11:52 PM,30.0,26.1,85,30.32,10.0,West,8.1,-,N/A,,Clear,280,2013-11-08 05:52:00